Location: Central Falls
(41.8900°N, 71.3929°W)
Time: 03:11:05
(UTC+00:00)

Vanguard 2 - Pass Details

Date: 08 December 2023
Orbit: 554 x 2918 km, 32.9° (Epoch: 01 March)

Event Time Altitude Azimuth Distance (km) Brightness Sun altitude
Rises 06:44:24 0° 277° (W) 6,173 - -57.3°
Reaches altitude 10° 06:49:47 10° 267° (W) 4,786 - -56.4°
Maximum altitude 06:59:20 26° 219° (SW) 2,875 - -54.7°
Drops below altitude 10° 07:06:02 10° 166° (SSE) 3,247 - -53.6°
Sets 07:08:55 0° 153° (SSE) 3,902 - -53.1°
